Location: Unspecified
(51.6250°N, 0.8230°E)
Time: 11:43:03
(UTC+01:00)

CZ-3 Stage 3 - Pass Details

Date: 13 August 2020
Orbit: 426 x 34763 km, 31.1° (Epoch: 22 September)

Event Time Altitude Azimuth Distance (km) Brightness Sun altitude
Rises 00:25:16 0° 96° (E) 18,746 9.4 -23.3°
Reaches altitude 10° 01:22:14 10° 84° (E) 27,599 10.5 -23.6°
Maximum altitude 06:36:39 35° 92° (E) 32,211 11.9 7.5°
Drops below altitude 10° 08:41:39 10° 92° (E) 16,724 11.0 26.8°
Sets 08:53:31 0° 90° (E) 14,980 10.2 28.6°
